Regional Weather Roundup
Issued by NWS

Home | Current Version | Previous Version | Text Only | Print | Product List | Glossary On
Versions: 1 2 3 4 5 6 7 8 9 10 11 12 13 14 15 16 17 18 19 20 21 22 23 24 25 26 27 28 29 30 31 32 33 34 35 36 37 38 39 40 41 42 43 44 45 46 47 48 49 50
000
ASUS43 KMKX 261300
RWRWI

WISCONSIN REGIONAL WEATHER ROUNDUP
NATIONAL WEATHER SERVICE MILWAUKEE/SULLIVAN WI
800 AM CDT SUN MAR 26 2017

NOTE: "FAIR" INDICATES FEW OR NO CLOUDS BELOW 12,000 FEET WITH NO
SIGNIFICANT WEATHER AND/OR OBSTRUCTIONS TO VISIBILITY.

WIZ001-002-006>008-014>016-023>028-261400-
NORTHWEST WISCONSIN

CITY           SKY/WX    TMP DP  RH WIND       PRES   REMARKS
SUPERIOR ARPT  MIX PCPN  33  33 100 NE8       30.02R WCI  26
ASHLAND        FOG       32  32 100 N5        30.00F VSB 1/4 WCI  27
HAYWARD        CLOUDY    35  32  88 NE5       29.96F FOG     WCI  31
SIREN          LGT RAIN  33  33  98 NE5       29.98R WCI  29
CUMBERLAND     CLOUDY    32  32 100 NE3       29.95S FOG
RICE LAKE      CLOUDY    34  34  99 CALM      29.97S
CHETEK         CLOUDY    34  33  99 CALM      29.95S FOG
LADYSMITH      CLOUDY    34  34  98 NE3       29.97S
EAU CLAIRE     NOT AVBL
MENOMONIE      CLOUDY    35  35  99 NE3       29.95R FOG
NEW RICHMOND   CLOUDY    34  34 100 NE3       29.95S FOG
OSCEOLA        CLOUDY    36  36 100 N3        29.99S
$$

WIZ003>005-009-010-017-018-261400-
NORTH CENTRAL WISCONSIN

CITY           SKY/WX    TMP DP  RH WIND       PRES   REMARKS
MANITOWISH WTR CLOUDY    32  32 100 CALM      29.96S FOG
ARBOR VITAE    CLOUDY    33  32  96 CALM      29.94F FOG
WOODRUFF       CLOUDY    33  32  96 CALM      29.94F FOG
RHINELANDER    CLOUDY    33  33 100 E6        29.95S WCI  28
EAGLE RIVER    MIX PCPN  32  32 100 E3        29.95F
LAND O LAKES   CLOUDY    32  32 100 CALM      29.97F
PHILLIPS       CLOUDY    32  32 100 NE5       29.94F FOG     WCI  27
TOMAHAWK       DRIZZLE   32  31  96 CALM      29.95S
MEDFORD        CLOUDY    32  32  99 E6        29.93R WCI  26
MERRILL        MIX PCPN  32  32 100 CALM      29.95S
$$

WIZ029-030-035-036-043>047-261400-
CENTRAL WISCONSIN

CITY           SKY/WX    TMP DP  RH WIND       PRES   REMARKS
WAUSAU         MIX PCPN  32  32 100 E8        29.93S FOG     WCI  25
MOSINEE        CLOUDY    32  32 100 E8        29.94S FOG     WCI  25
MARSHFIELD     LGT RAIN  33  32  96 E8        29.91F VSB 1   WCI  26
STEVENS POINT  MIX PCPN  31  31 100 NE6       29.94S WCI  26
WAUPACA        LGT RAIN  36  35  96 NE7       29.95F WCI  30
WAUTOMA        CLOUDY    35  34  96 NE9       29.93S WCI  28
WISC RAPIDS    CLOUDY    34  34 100 E9        29.94S WCI  27
CAMP DOUGLAS   NOT AVBL
$$

WIZ011>013-019>022-031-037>040-048>050-261400-
NORTHEAST WISCONSIN

CITY           SKY/WX    TMP DP  RH WIND       PRES   REMARKS
ANTIGO         CLOUDY    31  31 100 E6        29.95S WCI  25
SHAWANO        CLOUDY    35  33  94 NE8       29.98S FOG     WCI  28
OCONTO         CLOUDY    33  33  99 NE7       29.99S VSB 1   WCI  27
STURGEON BAY   LGT RAIN  35  35 100 E8        29.98F VSB 3/4 WCI  29
GREEN BAY      LGT RAIN  35  35 100 NE9       29.96S WCI  28
MANITOWOC      NOT AVBL
APPLETON       DRIZZLE   34  34 100 NE10      29.92F WCI  26
CLINTONVILLE   RAIN      32  32 100 NE8       29.96F WCI  25
OSHKOSH        CLOUDY    36  35  96 NE9       29.92F FOG     WCI  29
$$

WIZ032>034-041-042-053>061-261400-
SOUTHWEST WISCONSIN

CITY           SKY/WX    TMP DP  RH WIND       PRES   REMARKS
LA CROSSE      LGT RAIN  37  36  96 N7        29.91S FOG     WCI  32
SPARTA         CLOUDY    35  35  99 NE6       29.91F FOG     WCI  30
VIROQUA        CLOUDY    36  36 100 NE7       29.87S WCI  30
BOSCOBEL       CLOUDY    40  39  97 NE3       29.88S FOG
PRAIRIE DU CHI LGT RAIN  39  38  97 CALM      29.87S
PLATTEVILLE    CLOUDY    41  41 100 NE10      29.84S VSB 1/2
$$

WIZ056-057-062-063-064-067-068-261400-
SOUTH CENTRAL WISCONSIN

CITY           SKY/WX    TMP DP  RH WIND       PRES   REMARKS
REEDSBURG      FOG       37  37 100 NE6       29.89S VSB 1   WCI  32
BARABOO/DELLS  FOG       37  36  98 NE7       29.89S VSB 1/2 WCI  31
LONE ROCK      NOT AVBL
MINERAL POINT  DRZL/FOG  41  41 100 NE9       29.85S VSB 1/4
MADISON        DRZL/FOG  40  40 100 NE8       29.88S VSB 1/4 WCI  34
MIDDLETON      CLOUDY    41  41 100 NE6       29.88S VSB<1/4
WATERTOWN      FOG       40  40 100 E8        29.88S VSB 1   WCI  35
MONROE         SNOW      41  41 100 NE8       29.84S VSB<1/4
JANESVILLE     FOG       45  45 100 E8        29.85F VSB 1/2
$$

WIZ051-052-058>065-066-070>072-261400-
SOUTHEAST WISCONSIN

CITY           SKY/WX    TMP DP  RH WIND       PRES   REMARKS
MILWAUKEE      RAIN      39  38  96 NE10      29.91S VSB 1/2 WCI  32
WAUKESHA       LGT RAIN  37  37 100 E7        29.91S VSB 1/4 WCI  32
MILWAUKEE/TIMM DRIZZLE   37  36  93 NE6       29.92S FOG     WCI  33
RACINE         RAIN      40  39  97 NE7       29.91F VSB 3/4
KENOSHA        RAIN      42  41  96 E8        29.89S FOG
FOND DU LAC    CLOUDY    39  36  89 NE8       29.92S FOG     WCI  33
SHEBOYGAN      LGT RAIN  37  36  96 NE10      29.94S FOG     WCI  30
WEST BEND      DRZL/FOG  37  37 100 E7        29.92R VSB 1   WCI  32
JUNEAU         FOG       39  38  99 NE6       29.91S VSB 1/2 WCI  34
$$

LSZ147-162-261400-
LAKE SUPERIOR

STATION/POSITION TIME  TEMP    WIND        PRES    WAVE
                       AIR SEA DIR/SP/G            HT/PER
                 (UTC) (F)     (DEG/KT/KT) (MB)    (FT/S)
DEVILS ISLAND    1200   33      80/  4/  4 1017.5F
PORT WING        1240   33      40/  6/  7 1016.6S
SAXON HARBOR     1240   33        CALM     1015.9F
$$

LMZ867-665-643>646-261400-
LAKE MICHIGAN

STATION/POSITION TIME  TEMP    WIND        PRES    WAVE
                       AIR SEA DIR/SP/G            HT/PER
                 (UTC) (F)     (DEG/KT/KT) (MB)    (FT/S)
CHAMBERS ISLAND  1240   33      60/  7/ 10 1015.2F
NORTHPORT PIER   1240   34      70/ 12/ 14 1015.9F
SISTER BAY       1136   34     120/  7/ 11   N/A
KEWAUNEE LAKESHO 1230   36      60/  6/ 11 1014.4F
SHEBOYGAN LAKESH 1200   36      20/ 10/ 11 1014.4F
PORT WASHINGTON  1230   39      40/ 12/ 14 1014.9R
MILWAUKEE LAKESH 1230   38      30/ 12/ 14   N/A
KENOSHA   LAKESH 1200   39      40/  9/ 10 1012.5
$$

TC  - TEMPERATURE IN CELSIUS
VSB - VISIBILITY IN STATUTE MILES
WCI - WIND CHILL INDEX
HX  - HEAT INDEX





USA.gov is the U.S. government's official web portal to all federal, state and local government web resources and services.